SCP
0 0 0 0 0 0 0 0 0 0 0 0 0 0 0 0 0 0 0 0 0 0 0 0 0 0 0 0 0 0 0 0 0 0 0 0 0 0 0 0 0 0 0 0
0 0 0 0 0 0 0 0 0 0 0 0 0 0 0 0 0 0 0 0 0 0 0 0 0 0 0 0 0 0 0 0 0 0 0 0 0 0 0 0 0 0 0 0
0 0 0 0 0 0 0 0 0 0 0 0 0 0 0 0 0 0 0 0 0 0 0 0 0 0 0 0 0 0 0 0 0 0 0 0 0 0 0 0 0 0 0 0
0 0 0 0 0 0 0 0 0 0 0 0 0 0 0 0 0 0 0 0 0 0 0 0 0 0 0 0 0 0 0 0 0 0 0 0 0 0 0 0 0 0 0 0
0 0 0 0 0 0 0 0 0 0 0 0 0 0 0 0 0 0 0 0 0 0 0 0 0 0 0 0 0 0 0 0 0 0 0 0 0 0 0 0 0 0 0 0
0 0 0 0 0 0 0 0 0 0 0 0 0 0 0 0 0 0 0 0 0 0 0 0 0 0 0 0 0 0 0 0 0 0 0 0 0 0 0 0 0 0 0 0
0 0 0 0 0 0 0 0 0 0 0 0 0 0 0 0 0 0 0 0 0 0 0 0 0 0 0 0 0 0 0 0 0 0 0 0 0 0 0 0 0 0 0 0
0 0 0 0 0 0 0 0 0 0 0 0 0 0 0 0 0 0 0 0 0 0 0 0 0 0 0 0 0 0 0 0 0 0 0 0 0 0 0 0 0 0 0 0
0 0 0 0 0 0 0 0 0 0 0 0 0 0 0 0 0 0 0 0 0 0 0 0 0 0 0 0 0 0 0 0 0 0 0 0 0 0 0 0 0 0 0 0
0 0 0 0 0 0 0 0 0 0 0 0 0 0 0 0 0 0 0 0 0 0 0 0 0 0 0 0 0 0 0 0 0 0 0 0 0 0 0 0 0 0 0 0
0 0 0 0 0 0 0 0 0 0 0 0 0 0 0 0 0 0 0 0 0 0 0 0 0 0 0 0 0 0 0 0 0 0 0 0 0 0 0 0 0 0 0 0
0 0 0 0 0 0 0 0 0 0 0 0 0 0 0 0 0 0 0 0 0 0 0 0 0 0 0 0 0 0 0 0 0 0 0 0 0 0 0 0 0 0 0 0
0 0 0 0 0 0 0 0 0 0 0 0 0 0 0 0 0 0 0 0 0 0 0 0 0 0 0 0 0 0 0 0 0 0 0 0 0 0 0 0 0 0 0 0
0 0 0 0 0 0 0 0 0 0 0 0 0 0 0 0 0 0 0 0 0 0 0 0 0 0 0 0 0 0 0 0 0 0 0 0 0 0 0 0 0 0 0 0
0 0 0 0 0 0 0 0 0 0 0 0 0 0 0 0 0 0 0 0 0 0 0 0 0 0 0 0 0 0 0 0 0 0 0 0 0 0 0 0 0 0 0 0
0 0 0 0 0 0 0 0 0 0 0 0 0 0 0 0 0 0 0 0 0 0 0 0 0 0 0 0 0 0 0 0 0 0 0 0 0 0 0 0 0 0 0 0
0 0 0 0 0 0 0 0 0 0 0 0 0 0 0 0 0 0 0 0 0 0 0 0 0 0 0 0 0 0 0 0 0 0 0 0 0 0 0 0 0 0 0 0
0 0 0 0 0 0 0 0 0 0 0 0 0 0 0 0 0 0 0 0 0 0 0 0 0 0 0 0 0 0 0 0 0 0 0 0 0 0 0 0 0 0 0 0
0 0 0 0 0 0 0 0 0 0 0 0 0 0 0 0 0 0 0 0 0 0 0 0 0 0 0 0 0 0 0 0 0 0 0 0 0 0 0 0 0 0 0 0
0 0 0 0 0 0 0 0 0 0 0 0 0 0 0 0 0 0 0 0 0 0 0 0 0 0 0 0 0 0 0 0 0 0 0 0 0 0 0 0 0 0 0 0
0 0 0 0 0 0 0 0 0 0 0 0 0 0 0 0 0 0 0 0 0 0 0 0 0 0 0 0 0 0 0 0 0 0 0 0 0 0 0 0 0 0 0 0
0 0 0 0 0 0 0 0 0 0 0 0 0 0 0 0 0 0 0 0 0 0 0 0 0 0 0 0 0 0 0 0 0 0 0 0 0 0 0 0 0 0 0 0
0 0 0 0 0 0 0 0 0 0 0 0 0 0 0 0 0 0 0 0 0 0 0 0 0 0 0 0 0 0 0 0 0 0 0 0 0 0 0 0 0 0 0 0
0 0 0 0 0 0 0 0 -0 -0 0 0 0 0 0 0 0 0 0 0 0 0 0 0 0 0 0 0 0 0 0 0 0 0 0 0 0 0 0 0 0 0 0 0
0 0 0 0 0 -0 -0 -0 -0 -0 0 0 0 0 0 0 0 0 0 0 0 0 0 0 0 0 0 0 0 0 0 0 0 0 0 0 0 0 0 0 0 0 0 0
0 0 0 0 0 0 0 -0 0 0 0 0 0 0 0 0 0 0 0 0 0 0 0 0 0 0 0 0 0 0 0 0 0 0 0 0 0 0 0 0 0 0 0 0
0 0 0 0 0 0 0 -0 0 0 0 0 0 0 0 0 0 0 0 0 0 0 0 0 0 0 0 0 0 0 0 0 0 0 0 0 0 0 0 0 0 0 0 0
Wind_Speed
7 6 4 6 7 6 7 8 7 7 6 5 3 2 2 2 1 0 0 1 1 1 0 0 0 1 1 1 1 2 2 2 2 2 2 1 1 2 2 2 3 3 3 3
6 6 5 7 8 9 9 9 10 9 8 4 2 1 1 2 1 2 2 1 1 1 1 1 1 0 0 0 1 1 2 2 2 2 2 2 2 2 2 3 3 3 4 4
5 3 3 7 8 9 6 5 5 9 7 3 2 1 1 2 3 3 3 2 2 2 2 1 1 1 1 1 1 1 2 2 2 2 2 2 2 2 3 3 3 4 4 5
3 2 7 6 1 3 5 4 4 3 3 3 2 2 2 2 2 3 3 3 2 1 1 1 1 1 0 1 1 1 2 2 2 2 2 2 2 3 3 3 4 4 5 5
2 4 6 3 1 1 3 4 3 4 4 3 3 2 2 2 1 2 3 3 3 1 1 1 1 1 1 1 1 2 2 2 2 2 3 3 3 4 3 3 4 4 5 6
3 4 6 4 2 1 1 4 2 1 3 3 3 3 4 3 3 3 3 2 2 1 0 0 1 1 1 1 2 2 3 3 2 3 3 4 4 4 4 4 5 5 6 5
5 5 5 3 3 1 2 5 3 2 3 3 3 5 4 4 4 3 3 2 1 0 0 1 0 1 1 2 3 2 2 2 3 3 3 4 4 4 4 4 4 5 6 6
3 5 7 1 1 2 4 3 3 3 3 3 4 4 4 4 4 3 2 2 1 0 1 1 0 1 1 2 2 1 2 2 3 3 3 3 3 4 4 4 4 5 5 6
5 5 2 1 2 2 2 3 4 4 4 3 4 5 5 4 3 2 2 1 1 0 1 2 1 1 2 2 1 1 2 3 3 3 3 4 4 4 4 3 4 4 5 5
4 4 3 2 2 2 3 4 5 4 4 4 4 5 4 4 3 2 2 1 1 0 1 2 2 1 2 2 1 1 2 3 3 3 3 3 3 3 3 3 4 4 5 5
5 4 3 2 3 4 4 4 4 4 4 4 4 4 3 3 3 2 2 2 1 1 1 2 2 2 2 1 1 1 2 3 3 3 3 3 3 3 4 4 5 5 5 5
5 3 3 5 4 4 4 4 4 4 5 4 3 3 2 2 2 2 2 2 1 1 1 2 2 2 2 2 1 2 2 2 2 2 2 3 3 3 5 6 8 10 10 9
4 4 4 5 4 3 4 4 4 3 4 4 3 2 2 2 2 2 2 2 2 2 2 2 2 2 3 2 2 2 2 3 2 2 2 3 3 3 4 5 7 9 10 11
2 2 4 3 4 4 4 3 3 2 2 2 2 2 1 1 2 2 2 2 2 2 2 2 2 3 3 2 2 2 2 3 3 2 3 3 3 3 3 4 4 4 6 9
3 3 3 3 3 3 3 2 2 2 2 3 2 2 2 2 2 2 2 2 2 2 2 2 2 4 3 2 2 2 2 2 2 2 2 3 3 3 3 3 4 4 4 6
4 2 2 3 3 3 3 2 2 3 3 2 2 2 2 1 2 2 2 1 1 2 3 2 3 4 3 3 2 2 2 4 4 2 2 2 2 2 2 3 4 4 4 4
2 2 2 3 4 4 3 2 2 2 2 2 2 2 2 2 2 2 2 2 2 2 2 2 3 4 3 3 3 2 2 3 5 3 2 2 2 2 3 3 4 4 4 6
3 3 3 3 3 3 3 3 2 2 2 2 2 2 1 1 2 3 3 3 2 3 3 3 3 3 3 3 2 2 2 2 2 2 2 2 3 2 3 3 4 5 5 5
2 2 2 2 2 2 2 2 2 2 2 1 1 1 2 2 2 2 2 2 2 3 4 4 6 4 3 4 4 2 2 2 2 2 2 4 4 3 3 3 4 4 5 5
2 2 2 2 2 2 2 2 2 2 2 1 1 1 2 2 2 2 2 2 2 2 3 4 4 3 4 4 5 2 2 2 2 2 3 3 3 3 3 3 4 4 4 4
3 3 2 2 2 2 2 2 1 2 2 1 1 1 2 3 2 2 2 3 3 3 4 6 3 3 3 4 5 2 2 2 3 3 3 3 3 3 3 4 4 4 4 4
3 3 3 2 2 3 3 2 1 2 2 2 2 2 2 3 3 2 2 2 3 6 4 3 3 5 6 6 2 3 3 3 3 2 3 3 3 4 4 4 4 4 4 4
3 2 2 2 2 2 3 2 2 1 1 2 2 2 2 2 2 2 3 2 2 6 4 3 6 8 9 4 2 3 3 3 3 3 3 3 3 4 4 5 4 4 4 5
3 3 3 2 2 2 3 3 2 2 2 2 2 2 2 2 2 2 2 5 8 8 4 6 9 9 8 3 3 3 3 3 3 3 3 3 3 4 4 4 5 5 5 6
2 2 2 2 2 2 3 3 3 2 2 2 2 2 1 1 2 3 2 3 7 7 4 6 9 9 5 3 3 3 3 4 4 4 3 3 4 4 4 4 4 5 5 5
2 2 2 2 2 2 2 2 2 2 2 2 2 2 2 2 2 2 2 3 4 7 4 3 4 5 3 3 3 4 4 5 5 4 4 4 4 4 4 5 6 5 5 5
2 2 2 2 2 2 2 2 2 2 2 2 3 3 2 2 2 2 3 3 3 3 3 3 3 3 3 3 4 4 4 4 4 4 4 4 4 4 5 5 5 5 5 6
Wind_Direction
267 271 251 250 247 225 216 227 234 254 259 263 275 271 286 311 349 15 156 128 168 192 208 208 198 173 151 151 149 157 162 183 208 215 217 218 220 230 242 249 256 254 260 265
276 261 254 263 254 238 234 237 248 264 271 282 292 14 10 353 337 312 304 279 260 228 211 226 228 225 138 161 172 162 175 206 219 215 219 221 225 233 245 252 255 255 257 260
265 277 301 263 240 227 226 228 225 245 258 308 319 327 302 301 294 281 298 288 270 244 225 221 222 208 212 223 199 176 195 219 224 222 230 237 244 249 247 247 252 256 257 257
267 285 244 243 195 191 207 239 234 252 287 292 284 294 302 288 280 296 305 297 289 266 241 226 228 201 217 222 201 205 214 225 230 228 244 252 249 251 252 252 251 255 257 255
237 251 261 265 301 188 215 262 268 260 289 324 335 326 308 345 339 298 294 292 286 271 245 231 202 177 162 236 224 224 232 232 233 232 241 247 251 255 260 260 261 258 259 255
237 250 255 257 307 334 121 264 316 299 285 304 340 294 286 336 327 313 312 308 306 295 174 203 230 159 167 228 229 239 246 249 247 244 245 249 252 259 263 262 265 267 268 261
236 247 258 270 291 40 193 255 328 318 290 290 260 255 289 319 319 317 318 321 336 349 289 255 227 151 211 240 245 248 259 268 267 262 258 256 258 262 259 264 265 263 268 266
215 234 250 307 78 187 233 313 332 327 318 303 293 301 308 313 318 323 325 329 344 3 319 317 316 177 238 260 263 250 254 266 269 269 268 266 257 263 261 257 259 262 265 267
208 224 235 184 196 251 318 314 316 318 314 306 298 298 301 305 307 307 308 309 324 320 309 316 318 235 244 269 271 262 262 265 266 272 270 263 255 259 260 254 256 261 261 263
257 257 256 252 284 313 314 301 307 308 303 298 285 289 294 300 303 304 307 299 314 323 299 305 309 295 260 264 259 254 265 272 270 268 269 267 264 258 257 254 257 261 262 267
250 271 297 274 290 298 302 306 308 309 303 294 287 288 288 292 292 290 301 312 304 263 274 286 303 306 297 275 225 244 263 272 276 276 272 274 274 266 265 259 259 266 265 267
244 254 261 278 298 306 302 304 307 312 315 313 295 286 293 291 292 297 302 311 311 303 292 289 302 307 305 295 254 243 266 275 275 274 273 275 278 290 289 280 282 281 281 279
253 284 272 279 298 311 298 298 301 300 296 307 315 302 298 302 314 323 320 317 310 304 301 306 315 309 305 297 283 263 263 274 275 271 267 268 270 275 288 295 290 288 289 291
285 305 290 293 302 310 304 305 310 322 329 327 328 337 340 341 342 334 317 312 315 318 319 317 317 310 306 299 291 282 278 283 284 270 267 269 271 274 277 286 296 298 299 302
305 286 272 298 314 322 324 330 341 344 347 349 355 356 357 350 335 323 320 326 339 340 326 325 324 315 314 307 303 297 293 285 278 271 269 273 279 282 285 286 291 298 304 308
307 301 295 302 306 315 326 331 327 321 330 335 344 343 339 336 330 327 330 343 341 322 319 321 314 308 311 312 308 301 292 295 299 289 280 282 282 286 293 295 295 296 301 307
292 294 299 302 301 305 304 299 294 299 313 317 319 331 346 351 343 336 334 333 321 307 311 309 302 305 308 304 297 295 296 294 301 302 292 289 290 293 295 297 300 301 300 303
260 263 266 270 282 291 298 304 309 308 302 307 334 349 345 334 315 316 323 330 337 338 328 309 305 309 306 304 302 293 289 285 285 288 294 297 299 298 300 300 301 301 303 306
292 285 286 291 287 286 299 314 318 316 320 334 351 330 317 310 305 310 325 336 334 328 322 318 328 334 320 315 319 299 293 298 307 302 300 303 313 313 308 301 300 302 304 306
329 335 335 333 337 328 323 329 332 335 335 348 351 336 331 324 321 318 319 314 302 296 305 320 328 320 316 313 320 310 308 307 305 305 309 310 309 309 306 303 303 305 307 307
341 349 353 353 350 349 346 341 341 331 333 349 341 313 310 316 318 318 320 316 319 317 318 325 332 320 319 321 325 321 310 306 309 309 310 310 309 308 308 308 308 308 309 310
340 347 347 352 359 350 347 348 343 334 338 342 336 329 324 320 319 315 304 289 304 318 328 323 320 320 324 331 332 324 317 309 306 306 305 304 305 308 308 308 308 309 310 311
339 344 346 348 343 332 336 338 329 323 317 310 307 304 300 297 303 308 312 314 309 319 328 316 317 322 330 341 331 324 320 316 311 309 305 304 303 303 304 305 305 307 307 309
345 348 344 340 347 351 339 332 327 318 301 290 291 293 295 303 308 303 289 311 322 325 326 317 324 329 337 342 330 321 315 310 306 301 299 300 301 301 300 301 302 304 304 305
342 340 342 348 345 330 320 325 331 328 322 310 308 311 305 294 291 302 306 306 315 324 323 321 327 333 340 331 324 316 310 302 299 300 299 302 301 301 300 300 300 301 301 300
338 334 329 325 314 312 319 324 321 321 324 321 319 318 316 304 292 294 300 304 308 319 323 317 317 323 324 318 312 309 305 306 310 309 303 299 297 297 298 300 300 298 297 297
338 335 336 335 332 328 323 316 308 308 311 306 305 310 314 314 312 311 308 307 310 311 309 309 312 311 309 307 305 303 301 300 299 300 301 298 297 297 298 297 296 296 296 295